Wind_Speed
15 15 15 16 16 17 19 21 21 21 22 23 22 23 24 24 25 24 24 25 26 25 26 26 27 28 28 28 28 28 28 27 27 26 26 26 26 25 25 24 24 24 24 23
13 13 14 15 15 16 18 19 20 20 21 23 24 24 24 23 24 24 23 23 24 25 25 25 26 27 27 27 28 27 27 27 26 25 25 25 25 24 24 23 23 24 22 22
10 11 12 12 13 14 16 19 21 22 22 22 23 24 23 23 24 24 24 24 23 24 24 25 27 26 26 27 27 27 27 26 26 25 25 25 25 24 24 23 23 22 21 21
7 8 10 10 12 14 14 16 19 21 22 22 22 23 23 23 23 23 23 23 24 24 24 25 25 25 25 25 25 25 24 25 25 25 24 24 23 23 23 22 21 20 19 19
7 7 8 8 10 12 14 16 18 19 20 21 21 21 23 23 23 22 22 22 22 23 23 24 24 24 24 24 23 22 22 21 22 22 22 21 21 20 19 19 19 18 17 17
7 7 9 9 10 11 13 15 16 18 18 19 21 21 21 21 21 22 21 21 20 21 21 22 22 23 22 21 20 20 20 20 19 18 18 18 17 16 16 16 16 16 15 15
6 7 8 9 10 12 13 14 15 16 17 17 18 19 19 19 19 19 20 19 19 19 19 20 21 21 21 20 19 19 18 18 17 16 16 15 14 14 13 13 14 13 13 13
6 7 8 9 10 11 13 14 15 15 16 17 17 17 17 17 17 17 17 17 18 17 18 18 18 18 17 17 17 16 15 15 14 14 13 12 12 11 11 11 11 10 10 10
6 7 8 9 11 11 12 13 14 14 15 15 16 16 15 14 15 15 16 16 16 16 16 16 16 15 14 14 14 14 14 13 12 11 10 10 9 9 9 8 8 7 7 7
7 8 9 10 11 11 12 13 13 13 13 14 15 14 14 14 14 14 14 14 14 14 15 14 13 12 12 12 12 11 11 11 10 9 8 8 8 8 7 6 5 4 4 4
7 8 9 10 11 12 12 13 13 13 13 13 13 12 12 12 12 12 12 11 11 11 12 11 11 10 10 10 10 10 9 9 8 7 6 5 5 4 4 4 3 2 2 2
7 8 8 9 10 11 12 12 12 12 12 12 12 11 10 10 10 10 10 9 9 9 9 9 8 8 8 8 8 7 7 6 5 4 3 2 2 2 1 0 0 1 2 2
7 7 8 9 10 10 11 11 11 11 11 11 11 11 10 9 9 9 9 8 8 8 7 7 7 6 7 7 6 5 5 4 3 2 1 1 1 1 2 2 2 2 3 4
6 7 7 8 8 9 10 10 10 10 10 10 11 10 9 8 9 8 8 8 7 7 7 7 6 6 6 6 6 5 4 3 3 3 3 3 3 3 3 3 4 5 6 7
6 6 7 7 8 9 9 10 10 10 10 10 10 9 9 8 8 8 8 8 8 7 7 7 7 7 6 6 5 5 4 4 4 4 4 4 4 4 5 6 6 8 9 9
5 5 6 7 7 8 8 9 9 10 10 9 9 9 8 8 8 8 8 8 8 8 8 8 8 8 7 7 6 5 5 5 5 5 5 5 6 6 7 8 8 9 9 9
4 5 6 6 6 7 7 8 9 9 10 10 9 9 8 8 8 8 8 8 8 9 9 9 9 9 8 8 7 7 7 7 7 7 7 7 7 7 8 9 9 9 9 9
4 4 4 5 6 6 7 8 8 9 10 10 10 9 8 8 8 9 9 9 9 9 9 10 10 9 9 9 9 9 9 9 9 9 9 8 8 8 9 9 9 9 10 9
3 3 3 4 5 6 6 7 8 9 10 9 9 9 9 8 8 8 9 9 9 9 9 10 10 10 10 10 10 10 10 10 10 10 9 9 9 9 9 10 10 10 10 9
2 2 3 3 4 6 6 7 8 9 9 9 8 8 8 8 8 8 8 8 8 8 9 9 10 10 11 11 10 10 10 10 10 10 10 10 10 10 10 9 9 9 9 8
2 1 2 3 4 5 6 7 8 8 8 9 9 8 8 8 8 8 8 8 8 8 8 8 9 9 9 9 9 9 9 9 9 9 9 9 8 8 8 8 8 8 7 7
2 1 1 2 3 4 5 6 7 7 8 8 8 8 8 8 8 8 8 7 7 7 7 7 7 8 8 8 8 7 7 7 7 7 7 7 7 7 7 7 6 6 6 5
3 2 1 1 2 3 4 5 6 6 7 7 7 8 8 8 8 8 8 8 7 7 7 6 7 7 7 6 6 6 6 6 6 5 5 5 5 5 4 4 4 3 3 3
3 2 1 1 1 2 3 4 5 5 6 6 6 7 8 8 8 8 7 7 7 7 7 7 6 6 5 5 4 4 4 4 4 4 3 3 2 2 2 1 1 1 2 2
3 2 1 1 1 2 3 3 4 4 4 5 5 6 6 6 7 7 7 6 6 6 7 7 6 6 6 5 4 3 3 3 2 2 2 2 1 1 1 2 2 2 3 4
4 3 2 2 2 2 3 3 3 3 4 4 4 5 5 6 5 5 5 5 6 6 6 6 6 6 6 5 4 4 3 3 4 4 3 3 4 4 4 5 5 6 6 7
5 5 4 4 4 4 4 4 4 4 4 4 5 5 5 6 5 5 5 5 5 6 6 6 6 6 7 6 6 5 5 5 6 6 6 7 7 7 8 8 8 9 9 10
Wind_Direction
259 260 258 255 252 252 254 256 259 264 266 272 274 278 282 282 281 281 283 282 282 284 284 285 287 288 288 287 287 286 285 284 283 282 283 283 283 283 284 285 286 284 283 281
263 260 261 255 252 253 257 260 263 264 269 278 281 281 283 283 283 285 286 286 287 286 288 289 290 290 289 288 287 286 285 284 283 282 283 284 284 283 284 285 284 283 282 280
266 258 263 259 260 262 259 261 265 269 274 278 279 280 282 283 284 285 286 288 289 289 290 291 291 290 290 289 287 285 283 283 283 282 282 283 283 282 283 283 283 281 280 281
252 259 266 266 261 265 272 272 272 274 275 280 281 280 283 284 284 284 288 288 288 290 292 293 294 293 292 292 290 288 286 285 283 281 282 284 283 281 280 280 281 279 278 277
265 264 270 270 275 273 271 276 277 281 282 284 286 286 286 284 284 284 286 287 288 291 292 293 294 295 295 292 290 289 289 288 287 285 284 284 283 281 279 278 277 276 277 277
276 276 278 284 286 284 285 287 289 289 289 291 293 291 288 284 283 283 286 290 290 292 293 294 295 295 295 293 291 291 292 290 290 289 288 286 284 281 280 279 279 275 273 275
271 274 287 289 296 298 295 297 294 293 295 296 297 298 294 290 288 287 288 293 295 295 296 297 297 296 295 294 292 293 294 291 290 291 290 287 284 283 282 281 278 273 269 269
285 285 289 299 300 301 303 304 302 300 302 303 305 307 303 296 293 293 293 294 295 296 297 299 299 298 298 297 295 295 296 294 293 293 292 289 283 281 281 277 274 271 270 269
291 291 299 300 305 304 308 309 309 307 307 309 309 309 309 303 298 296 296 297 297 298 300 300 300 302 302 301 299 298 300 298 295 293 286 285 285 283 283 280 275 273 271 269
292 295 303 304 310 312 312 312 314 314 313 313 314 313 313 311 306 304 304 303 302 301 303 303 305 304 303 303 305 306 306 303 298 292 288 283 284 284 286 282 278 273 267 255
302 305 309 313 316 320 321 318 316 318 318 318 318 320 320 319 315 314 314 313 308 307 309 311 311 307 307 308 310 311 311 310 303 294 295 294 296 293 290 289 286 271 239 225
311 311 312 317 321 325 328 328 326 325 328 329 329 331 334 332 331 329 328 327 324 321 322 323 321 320 322 320 321 319 318 316 312 306 302 295 297 307 316 340 93 209 183 162
311 312 317 321 325 330 333 334 331 330 332 333 337 339 342 342 341 341 343 344 346 346 342 337 335 335 336 339 340 337 333 330 332 345 3 78 80 87 97 109 111 133 142 141
313 317 320 325 332 337 340 341 341 338 338 340 342 343 344 346 350 353 354 360 1 360 359 355 351 347 345 352 356 359 7 23 35 52 71 78 78 87 101 112 108 114 124 127
316 322 325 328 332 338 343 347 348 347 346 348 351 354 356 357 359 2 6 10 13 14 15 15 15 14 14 21 29 39 50 53 52 60 75 81 85 94 102 108 109 115 120 120
314 322 329 333 337 345 351 354 356 359 2 2 4 6 8 12 13 16 21 25 28 30 33 36 37 40 42 46 50 59 62 60 58 74 82 84 88 98 105 111 116 119 122 120
314 321 330 339 346 353 358 2 5 7 11 15 15 15 17 19 25 30 34 36 40 41 46 49 50 52 53 53 61 68 66 65 70 80 82 86 95 106 113 117 120 120 122 122
316 326 341 352 359 1 4 9 13 16 19 22 24 26 29 31 35 39 43 47 49 49 51 52 53 54 57 59 62 64 68 71 76 82 81 86 96 106 116 120 123 122 121 123
301 326 346 360 8 10 11 14 18 21 24 27 31 34 37 39 39 42 46 49 52 53 53 51 53 56 58 62 65 70 74 76 78 80 81 85 92 100 106 112 117 121 120 121
278 314 346 1 10 15 18 19 19 22 26 29 33 37 40 41 43 46 48 50 53 56 56 55 55 56 59 64 68 72 73 75 77 78 79 85 90 96 102 108 111 116 118 122
259 305 347 2 10 16 19 21 21 24 26 29 33 37 41 44 46 48 49 50 52 53 54 55 57 58 59 63 66 67 69 72 75 78 80 86 91 95 99 105 110 115 119 125
241 271 331 360 8 13 16 19 23 26 29 32 34 36 39 42 44 46 46 47 48 49 49 49 53 59 61 61 62 65 69 72 73 73 76 84 89 92 96 103 110 116 121 128
234 243 279 342 9 15 17 21 23 26 32 35 36 37 38 41 42 43 43 43 44 44 45 48 51 54 54 54 54 56 57 58 61 66 74 82 87 91 96 105 113 122 134 145
224 227 243 323 8 16 21 22 24 30 34 35 36 38 39 40 40 39 39 41 43 45 46 45 43 41 40 39 40 40 43 47 51 56 63 72 78 81 90 113 139 167 189 198
213 215 229 277 337 358 6 6 11 20 24 26 28 29 28 29 32 35 36 36 36 34 32 30 27 24 22 19 17 12 9 6 8 10 8 359 342 321 296 279 268 258 250 248
214 223 241 268 294 318 336 344 350 354 356 0 4 5 8 11 14 17 19 21 22 19 17 17 14 10 8 4 356 346 339 331 326 321 316 310 303 295 288 283 277 272 269 267
226 237 250 264 281 293 304 316 325 328 332 335 337 340 344 349 350 350 348 350 353 355 355 355 353 352 351 349 343 332 321 313 306 300 295 292 290 286 282 280 279 276 274 272
Height
5794 5795 5795 5796 5798 5798 5798 5798 5799 5798 5796 5795 5794 5794 5793 5792 5790 5789 5788 5786 5785 5782 5781 5779 5778 5776 5773 5771 5770 5768 5767 5766 5765 5764 5763 5762 5761 5760 5759 5759 5758 5757 5757 5756
5791 5792 5791 5792 5793 5793 5794 5794 5794 5793 5793 5791 5790 5789 5788 5787 5785 5783 5782 5780 5778 5777 5775 5773 5771 5769 5766 5765 5763 5761 5760 5759 5758 5757 5756 5755 5754 5753 5752 5752 5751 5751 5750 5750
5787 5788 5788 5789 5790 5790 5790 5790 5789 5789 5789 5787 5786 5784 5783 5781 5780 5778 5776 5774 5772 5771 5769 5767 5765 5762 5760 5758 5756 5754 5753 5751 5750 5749 5749 5748 5747 5746 5746 5745 5745 5744 5744 5744
5785 5787 5786 5789 5786 5786 5786 5786 5785 5784 5783 5782 5780 5779 5777 5775 5774 5772 5770 5768 5767 5765 5763 5761 5758 5755 5753 5751 5749 5747 5745 5744 5743 5742 5741 5741 5740 5739 5739 5739 5738 5738 5738 5738
5784 5784 5784 5785 5784 5784 5783 5783 5781 5780 5778 5776 5774 5772 5771 5770 5768 5766 5764 5763 5761 5759 5757 5755 5752 5749 5747 5744 5743 5741 5739 5738 5737 5736 5735 5734 5733 5733 5733 5733 5733 5733 5733 5733
5783 5783 5782 5784 5782 5781 5781 5780 5778 5775 5774 5772 5770 5768 5766 5764 5762 5760 5759 5757 5756 5754 5751 5749 5746 5744 5741 5739 5737 5736 5734 5733 5731 5730 5729 5728 5728 5728 5728 5728 5728 5728 5729 5729
5782 5781 5781 5781 5780 5780 5779 5778 5774 5771 5770 5768 5765 5763 5761 5759 5757 5756 5754 5752 5751 5749 5746 5744 5741 5738 5736 5734 5732 5731 5729 5728 5726 5725 5725 5724 5724 5724 5724 5724 5724 5724 5725 5725
5781 5781 5782 5780 5778 5778 5776 5773 5770 5768 5766 5763 5761 5758 5756 5754 5753 5751 5749 5748 5746 5744 5741 5739 5736 5734 5731 5729 5728 5726 5725 5724 5722 5722 5721 5720 5720 5720 5720 5721 5721 5721 5722 5722
5781 5782 5779 5778 5776 5775 5772 5770 5768 5765 5763 5760 5757 5755 5753 5751 5749 5747 5745 5743 5741 5739 5737 5735 5732 5730 5728 5726 5724 5723 5722 5720 5719 5719 5718 5718 5718 5718 5718 5718 5718 5719 5719 5720
5780 5779 5778 5776 5774 5772 5770 5768 5765 5762 5760 5757 5755 5752 5750 5748 5745 5744 5742 5740 5737 5735 5733 5731 5729 5727 5725 5724 5722 5720 5719 5718 5717 5716 5716 5716 5716 5716 5716 5717 5717 5717 5718 5719
5779 5778 5776 5774 5772 5770 5768 5765 5763 5760 5758 5755 5752 5750 5748 5745 5743 5741 5739 5737 5734 5732 5731 5729 5727 5725 5723 5722 5720 5719 5718 5716 5716 5715 5715 5715 5715 5715 5715 5716 5716 5717 5717 5718
5779 5777 5775 5774 5771 5769 5766 5764 5761 5758 5756 5753 5751 5748 5746 5743 5741 5739 5737 5735 5732 5730 5729 5727 5725 5724 5722 5720 5719 5718 5717 5716 5715 5715 5714 5714 5715 5715 5715 5716 5716 5717 5718 5718
5777 5776 5774 5772 5770 5767 5765 5762 5760 5757 5755 5752 5750 5747 5745 5742 5740 5738 5736 5734 5731 5729 5728 5726 5725 5723 5722 5720 5719 5717 5717 5716 5715 5715 5715 5715 5715 5716 5716 5717 5717 5717 5718 5719
5776 5775 5773 5771 5769 5766 5764 5761 5759 5756 5754 5751 5749 5746 5744 5742 5740 5738 5735 5733 5732 5730 5728 5726 5725 5723 5722 5720 5719 5718 5717 5717 5716 5716 5716 5716 5716 5717 5717 5718 5718 5719 5720 5721
5775 5774 5772 5770 5768 5766 5764 5761 5758 5756 5753 5751 5748 5746 5744 5742 5740 5738 5736 5734 5732 5730 5729 5727 5726 5724 5723 5721 5720 5720 5719 5719 5718 5718 5718 5718 5718 5719 5719 5720 5720 5721 5722 5723
5774 5773 5771 5769 5767 5765 5763 5761 5758 5756 5753 5751 5749 5747 5744 5743 5741 5739 5737 5735 5734 5732 5730 5729 5727 5726 5725 5724 5723 5722 5721 5721 5720 5720 5720 5720 5720 5721 5721 5722 5723 5724 5725 5726
5773 5772 5770 5769 5767 5765 5763 5761 5759 5756 5754 5752 5750 5747 5745 5744 5742 5740 5739 5737 5736 5734 5733 5731 5730 5729 5727 5726 5725 5725 5724 5723 5723 5723 5723 5723 5723 5724 5724 5725 5726 5727 5728 5729
5772 5771 5770 5769 5767 5765 5763 5761 5759 5757 5755 5753 5751 5749 5747 5746 5744 5743 5741 5740 5738 5737 5736 5735 5733 5732 5731 5730 5729 5728 5727 5726 5726 5726 5726 5726 5726 5726 5727 5728 5729 5730 5731 5732
5772 5771 5770 5769 5767 5765 5764 5762 5761 5759 5757 5755 5753 5751 5749 5748 5747 5745 5744 5743 5741 5740 5739 5738 5736 5735 5734 5733 5732 5731 5731 5730 5730 5730 5729 5730 5730 5730 5730 5731 5732 5733 5735 5736
5771 5770 5770 5769 5767 5766 5765 5763 5762 5760 5758 5756 5755 5753 5752 5750 5749 5748 5746 5745 5744 5743 5742 5741 5740 5739 5738 5737 5736 5736 5735 5734 5734 5734 5733 5733 5734 5734 5734 5735 5736 5737 5738 5739
5770 5770 5769 5769 5768 5767 5765 5764 5762 5761 5759 5758 5756 5755 5753 5752 5751 5750 5749 5748 5747 5746 5745 5744 5743 5742 5741 5741 5740 5739 5739 5738 5738 5738 5737 5737 5737 5738 5738 5738 5739 5740 5741 5742
5769 5769 5769 5769 5768 5767 5766 5765 5763 5762 5760 5759 5758 5756 5755 5754 5753 5752 5751 5750 5750 5749 5748 5747 5746 5745 5745 5744 5743 5743 5742 5742 5741 5741 5741 5741 5741 5741 5741 5741 5742 5742 5743 5744
5769 5769 5769 5769 5768 5767 5766 5765 5764 5763 5761 5760 5759 5758 5757 5756 5755 5754 5753 5753 5751 5751 5750 5749 5749 5748 5747 5746 5746 5745 5745 5744 5744 5743 5743 5743 5743 5744 5744 5744 5744 5745 5745 5745
5768 5768 5768 5768 5768 5768 5767 5766 5765 5764 5763 5762 5761 5760 5759 5758 5757 5756 5755 5754 5754 5753 5752 5751 5751 5750 5749 5748 5748 5747 5747 5746 5746 5746 5745 5745 5745 5745 5745 5746 5746 5746 5746 5746
5767 5768 5768 5768 5768 5768 5767 5766 5765 5765 5764 5763 5762 5761 5760 5759 5758 5758 5757 5756 5755 5755 5754 5753 5752 5751 5751 5750 5749 5748 5748 5747 5747 5747 5747 5746 5746 5746 5746 5746 5746 5746 5746 5747
5766 5767 5767 5768 5768 5767 5767 5766 5766 5765 5764 5764 5763 5762 5761 5760 5759 5759 5758 5757 5757 5756 5755 5754 5753 5752 5751 5751 5750 5749 5749 5748 5748 5747 5747 5747 5747 5746 5746 5746 5746 5746 5746 5746
5765 5766 5766 5766 5767 5766 5766 5766 5765 5765 5764 5764 5763 5762 5762 5761 5760 5759 5759 5758 5757 5756 5756 5755 5754 5753 5752 5751 5750 5749 5748 5748 5747 5747 5746 5746 5746 5745 5745 5745 5744 5744 5744 5744